Location: Les Jeannots
(43.2262°N, 5.5774°E)
Time: 17:45:24
(UTC+00:00)

OAO 3 Rocket - Pass Details

Date: 05 July 2020
Orbit: 629 x 683 km, 35.0° (Epoch: 13 August)

Event Time Altitude Azimuth Distance (km) Brightness Sun altitude
Rises 21:16:46 0° 262° (W) 3,008 6.9 -16.1°
Reaches altitude 10° 21:19:32 10° 248° (WSW) 2,101 5.9 -16.4°
Maximum altitude 21:23:24 23° 196° (SSW) 1,412 4.5 -16.8°
Enters shadow 21:23:58 23° 185° (S) 1,431 4.5 -16.8°
